Regional Weather Roundup
Issued by NWS

Home | Current Version | Previous Version | Graphics & Text | Print | Product List | Glossary Off
Versions: 1 2 3 4 5 6 7 8 9 10 11 12 13 14 15 16 17 18 19 20 21 22 23 24 25 26 27 28 29 30 31 32 33 34 35 36 37 38 39 40 41 42 43 44 45 46 47 48 49 50

000
ASUS43 KDMX 221106
RWRIA

WEATHER ROUNDUP FOR IOWA
NATIONAL WEATHER SERVICE DES MOINES IA
500 AM CST MON JAN 22 2018

NOTE: "FAIR" INDICATES FEW OR NO CLOUDS BELOW 12,000 FEET WITH NO
SIGNIFICANT WEATHER AND/OR OBSTRUCTIONS TO VISIBILITY.

* - THESE STATIONS ARE NOT NWS STATIONS...THUS NOT UNDER NWS
QUALITY CONTROL.  THEY ALSO DO NOT REPORT WEATHER SUCH
AS PRECIPITATION OR FOG.

IAZ001>003-012>014-020>022-031>034-043>046-221200-
   NORTHWEST IOWA

CITY           SKY/WX    TMP DP  RH WIND       PRES   REMARKS
CARROLL *      CLOUDY    36  36 100 NE21      29.48F FOG     WCI  24
CHEROKEE *     LGT RAIN  34  34  99 NE24G38   29.52F WCI  22
DENISON *      HVY RAIN  34  34 100 NE20G31   29.50F WCI  22
LE MARS *      MIX PCPN  32  32 100 N29G37    29.56F WCI  18
ORANGE CITY *  LGT SNOW  34  34 100 NE15G29   29.59F WCI  24
SHELDON *      LGT SNOW  32  30  93 NE31G43   29.58F WCI  17
SIOUX CITY     LGT SNOW  33  32  96 N10G21    29.58S FOG     WCI  25
SPENCER        LGT SNOW  34  31  88 NE33G44   29.60F VSB 3/4 WCI  20
STORM LAKE *   LGT RAIN  34  34 100 NE35G45   29.51F WCI  19
$$

IAZ055>058-069>071-079>083-090>094-221200-
   SOUTHWEST IOWA

CITY           SKY/WX    TMP DP  RH WIND       PRES   REMARKS
ATLANTIC *     CLOUDY    37  37 100 NE15G24   29.40F FOG     WCI  28
AUDUBON *      MIX PCPN  36  34  93 N13G21    29.45F WCI  27
CLARINDA *     LGT RAIN  39  39 100 W5          N/A
COUNCIL BLFS * CLOUDY    36  36 100 N9        29.44R WCI  29
CRESTON *      FOG       37  37 100 NE20      29.38F VSB<1/4 WCI  27
HARLAN  *      CLOUDY    36  36 100 NE22G30   29.44R WCI  24
LAMONI         FOG       43  42  97 NE6       29.38F VSB 1/4
RED OAK *      CLOUDY    37  37 100 VRB3      29.43F
SHENANDOAH *   CLOUDY    37  37 100 NW13      29.45F WCI  29
$$

IAZ047>049-059>061-072>074-084-221200-
   CENTRAL IOWA

CITY           SKY/WX    TMP DP  RH WIND       PRES   REMARKS
AMES           RAIN      38  38 100 NE13      29.49F WCI  30
ANKENY *       CLOUDY    39  37  93 NE13      29.46F WCI  32
BOONE *        CLOUDY    37  37 100 NE22      29.45F FOG     WCI  27
CHARITON *     FOG       45  45 100 E12       29.41F VSB 1/4
DES MOINES     CLOUDY    39  38  96 NE17      29.41F WCI  30
GRINNELL*      RAIN      42  41  97 NE10      29.49F
KNOXVILLE *    FOG       43  43 100 E14       29.41F VSB 3/4
MARSHALLTOWN   LGT RAIN  38  37  97 E21       29.48F WCI  28
NEWTON *       CLOUDY    41  41 100 NE6G12    29.47S FOG
PELLA *        RAIN      42  42  99 E8        29.46F
PERRY *        CLOUDY    38  38  99 NE17G23   29.45F WCI  28
$$

IAZ004>006-015-016-023>025-035-036-221200-
   NORTH CENTRAL IOWA

CITY           SKY/WX    TMP DP  RH WIND       PRES   REMARKS
ALGONA *       LGT SNOW  34 N/A N/A NE28G35   29.58F WCI  20
CLARION *      CLOUDY    36  36 100 NE17G24   29.56F FOG     WCI  25
ESTHERVILLE    LGT SNOW  31  31 100 N31G41    29.63F VSB 3/4 WCI  16
FORT DODGE *   LGT RAIN  35  34  96 NE16G25   29.53F WCI  25
MASON CITY     LGT RAIN  35  33  92 NE17G29   29.60S FOG     WCI  25
FOREST CITY *  RAIN      36  34  93 NE21G31   29.60F WCI  24
WEBSTER CITY * CLOUDY    37  37 100 NE20G28   29.51S FOG     WCI  27
IOWA FALLS *   LGT RAIN  38  37  97 NE16G23   29.53F WCI  28
$$

IAZ007>011-017>019-026>030-037>042-050>054-066-221200-
   NORTHEAST IOWA

CITY           SKY/WX    TMP DP  RH WIND       PRES   REMARKS
CEDAR RAPIDS   FOG       41  41 100 E18G25    29.51F VSB 1/2
CHARLES CITY * LGT RAIN  37  37 100 NE21G29   29.57F WCI  27
DECORAH *      RAIN      37  36  93 NE16      29.62S WCI  28
DUBUQUE        CLOUDY    37  37 100 NE15      29.57F WCI  28
MONTICELLO *   CLOUDY    39  39 100 NE13G21   29.57S WCI  32
OELWEIN *      CLOUDY    37  37 100 E21G29    29.56S WCI  27
WATERLOO       HVY RAIN  37  35  92 NE18      29.55F FOG     WCI  27
$$

IAZ064-065-067-068-078-221200-
   EAST CENTRAL IOWA

CITY           SKY/WX    TMP DP  RH WIND       PRES   REMARKS
DAVENPORT      LGT RAIN  44  42  93 E17       29.55F VSB 1/4
IOWA CITY      CLOUDY    43  41  93 NE9       29.54F FOG
MT. PLEASANT * CLOUDY    50  48  93 SE7       29.50F
MUSCATINE *    CLOUDY    48  46  93 N5        29.53R FOG
QUAD CITIES    LGT RAIN  49  48  97 E9        29.54F VSB 3/4
$$

IAZ062-063-075>077-085>089-095>099-221200-
   SOUTHEAST IOWA

CITY           SKY/WX    TMP DP  RH WIND       PRES   REMARKS
BURLINGTON     CLOUDY    52  50  93 SE10      29.48F
FAIRFIELD *    CLOUDY    52  50  93 SE10      29.47F
FORT MADISON * CLOUDY    52  52 100 S7        29.52F
KEOKUK *       CLOUDY    52  52 100 S7        29.50F
OSKALOOSA *    CLOUDY    44  44  99 E6        29.46F FOG
OTTUMWA        LGT RAIN  53  50  89 S14       29.45F
WASHINGTON *   FOG       45  45 100 NE8       29.52S VSB 1/4
$$

ABBREVIATIONS USED IN REMARKS
   TC - TEMPERATURES IN CELSIUS
  WCI - WIND CHILL INDEX
   HX - HEAT INDEX
  VSB - VISIBILITY
$$





USA.gov is the U.S. government's official web portal to all federal, state and local government web resources and services.